Time,TemperatureF,DewpointF,PressureIn,WindDirection,WindDirectionDegrees,WindSpeedMPH,WindSpeedGustMPH,Humidity,HourlyPrecipIn,Conditions,Clouds,dailyrainin,SoftwareType,DateUTC
2013-12-25 00:00:00,7.1,0.8,30.19,SSE,165,1.0,1.0,75,0.00,,,0.00,Wunderground v.1.15,2013-12-25 05:00:00,
2013-12-25 00:05:00,7.0,0.2,30.19,WSW,250,1.0,3.0,73,0.00,,,0.00,Wunderground v.1.15,2013-12-25 05:05:00,
2013-12-25 00:10:00,6.9,0.1,30.19,SW,214,2.0,2.0,73,0.00,,,0.00,Wunderground v.1.15,2013-12-25 05:10:00,
2013-12-25 00:15:00,6.8,0.3,30.19,SSE,168,1.0,2.0,74,0.00,,,0.00,Wunderground v.1.15,2013-12-25 05:15:00,
2013-12-25 00:25:00,6.7,-0.1,30.19,South,178,1.0,1.0,73,0.00,,,0.00,Wunderground v.1.15,2013-12-25 05:25:00,
2013-12-25 00:35:00,6.7,-0.4,30.20,SE,134,1.0,2.0,72,0.00,,,0.00,Wunderground v.1.15,2013-12-25 05:35:00,
2013-12-25 00:40:00,6.6,-0.8,30.20,SSE,166,3.0,3.0,71,0.00,,,0.00,Wunderground v.1.15,2013-12-25 05:40:00,
2013-12-25 00:45:00,6.6,-0.8,30.20,SW,226,2.0,3.0,71,0.00,,,0.00,Wunderground v.1.15,2013-12-25 05:45:00,
2013-12-25 00:49:00,6.6,-0.8,30.20,SE,139,1.0,4.0,71,0.00,,,0.00,Wunderground v.1.15,2013-12-25 05:49:00,
2013-12-25 00:55:00,6.5,-1.2,30.20,SE,124,1.0,6.0,70,0.00,,,0.00,Wunderground v.1.15,2013-12-25 05:55:00,
2013-12-25 01:00:00,6.5,-1.2,30.20,SSE,160,3.0,9.0,70,0.00,,,0.00,Wunderground v.1.15,2013-12-25 06:00:00,
2013-12-25 01:05:00,6.4,-1.6,30.21,SSE,160,3.0,9.0,69,0.00,,,0.00,Wunderground v.1.15,2013-12-25 06:05:00,
2013-12-25 01:10:00,6.3,-1.7,30.21,SE,135,3.0,3.0,69,0.00,,,0.00,Wunderground v.1.15,2013-12-25 06:10:00,
2013-12-25 01:15:00,6.1,-1.9,30.21,SW,216,3.0,7.0,69,0.00,,,0.00,Wunderground v.1.15,2013-12-25 06:15:00,
2013-12-25 01:25:00,5.8,-1.9,30.22,SE,129,3.0,5.0,70,0.00,,,0.00,Wunderground v.1.15,2013-12-25 06:25:00,
2013-12-25 01:30:00,5.6,-2.4,30.22,South,188,2.0,4.0,69,0.00,,,0.00,Wunderground v.1.15,2013-12-25 06:30:00,
2013-12-25 01:40:00,5.5,-2.2,30.23,South,184,2.0,5.0,70,0.00,,,0.00,Wunderground v.1.15,2013-12-25 06:40:00,
2013-12-25 01:45:00,5.5,-2.2,30.23,South,183,2.0,5.0,70,0.00,,,0.00,Wunderground v.1.15,2013-12-25 06:45:00,
2013-12-25 01:55:00,5.4,-2.3,30.24,SSW,200,1.0,2.0,70,0.00,,,0.00,Wunderground v.1.15,2013-12-25 06:55:00,
2013-12-25 02:00:00,5.3,-2.1,30.24,SSE,147,1.0,1.0,71,0.00,,,0.00,Wunderground v.1.15,2013-12-25 07:00:00,
2013-12-25 02:10:00,5.3,-2.1,30.25,SSE,162,1.0,1.0,71,0.00,,,0.00,Wunderground v.1.15,2013-12-25 07:10:00,
2013-12-25 02:20:00,5.3,-1.5,30.25,South,187,0.0,0.0,73,0.00,,,0.00,Wunderground v.1.15,2013-12-25 07:20:00,
2013-12-25 02:30:00,5.2,-1.0,30.26,ESE,118,1.0,1.0,75,0.00,,,0.00,Wunderground v.1.15,2013-12-25 07:30:00,
2013-12-25 02:35:00,5.1,-1.1,30.26,SW,218,0.0,1.0,75,0.00,,,0.00,Wunderground v.1.15,2013-12-25 07:35:00,
2013-12-25 02:40:00,4.9,-1.6,30.27,SSW,207,1.0,2.0,74,0.00,,,0.00,Wunderground v.1.15,2013-12-25 07:40:00,
2013-12-25 02:50:00,4.6,-1.6,30.27,East,82,2.0,2.0,75,0.00,,,0.00,Wunderground v.1.15,2013-12-25 07:50:00,
2013-12-25 03:00:00,4.3,-2.2,30.27,SSE,168,0.0,0.0,74,0.00,,,0.00,Wunderground v.1.15,2013-12-25 08:00:00,
2013-12-25 03:10:00,4.1,-2.6,30.28,SSE,160,1.0,1.0,73,0.00,,,0.00,Wunderground v.1.15,2013-12-25 08:10:00,
2013-12-25 03:20:00,3.9,-2.8,30.29,SE,146,1.0,1.0,73,0.00,,,0.00,Wunderground v.1.15,2013-12-25 08:20:00,
2013-12-25 03:25:00,3.8,-2.9,30.29,SE,142,2.0,2.0,73,0.00,,,0.00,Wunderground v.1.15,2013-12-25 08:25:00,
2013-12-25 03:30:00,3.7,-3.0,30.30,WSW,258,1.0,1.0,73,0.00,,,0.00,Wunderground v.1.15,2013-12-25 08:30:00,
2013-12-25 03:40:00,3.5,-3.2,30.30,ESE,106,1.0,1.0,73,0.00,,,0.00,Wunderground v.1.15,2013-12-25 08:40:00,
2013-12-25 03:45:00,3.4,-3.3,30.30,SW,233,1.0,1.0,73,0.00,,,0.00,Wunderground v.1.15,2013-12-25 08:45:00,
2013-12-25 03:55:00,3.2,-3.5,30.30,SW,224,0.0,1.0,73,0.00,,,0.00,Wunderground v.1.15,2013-12-25 08:55:00,
2013-12-25 04:00:00,3.2,-3.8,30.30,SE,130,1.0,1.0,72,0.00,,,0.00,Wunderground v.1.15,2013-12-25 09:00:00,
2013-12-25 04:10:00,3.1,-3.9,30.30,SSE,149,1.0,1.0,72,0.00,,,0.00,Wunderground v.1.15,2013-12-25 09:10:00,
2013-12-25 04:15:00,3.0,-4.0,30.31,SSE,149,0.0,1.0,72,0.00,,,0.00,Wunderground v.1.15,2013-12-25 09:15:00,
2013-12-25 04:20:00,2.8,-3.9,30.31,SSE,149,0.0,0.0,73,0.00,,,0.00,Wunderground v.1.15,2013-12-25 09:20:00,
2013-12-25 04:25:00,2.7,-4.0,30.32,SSE,149,0.0,0.0,73,0.00,,,0.00,Wunderground v.1.15,2013-12-25 09:25:00,
2013-12-25 04:34:00,2.4,-4.0,30.32,SSE,149,0.0,0.0,74,0.00,,,0.00,Wunderground v.1.15,2013-12-25 09:34:00,
2013-12-25 04:40:00,2.3,-4.1,30.33,SSE,149,0.0,0.0,74,0.00,,,0.00,Wunderground v.1.15,2013-12-25 09:40:00,
2013-12-25 04:50:00,2.2,-3.9,30.33,SSE,149,0.0,0.0,75,0.00,,,0.00,Wunderground v.1.15,2013-12-25 09:50:00,
2013-12-25 04:55:00,2.1,-4.3,30.33,SSE,149,0.0,0.0,74,0.00,,,0.00,Wunderground v.1.15,2013-12-25 09:55:00,
2013-12-25 05:00:00,1.9,-4.2,30.33,SSE,149,0.0,0.0,75,0.00,,,0.00,Wunderground v.1.15,2013-12-25 10:00:00,
2013-12-25 05:10:00,1.7,-3.8,30.33,SSW,209,0.0,0.0,77,0.00,,,0.00,Wunderground v.1.15,2013-12-25 10:10:00,
2013-12-25 05:15:00,1.8,-3.7,30.34,SSW,209,0.0,0.0,77,0.00,,,0.00,Wunderground v.1.15,2013-12-25 10:15:00,
2013-12-25 05:25:00,1.7,-3.8,30.34,SSW,209,0.0,0.0,77,0.00,,,0.00,Wunderground v.1.15,2013-12-25 10:25:00,
2013-12-25 05:35:00,1.6,-3.7,30.35,SSW,209,0.0,0.0,78,0.00,,,0.00,Wunderground v.1.15,2013-12-25 10:35:00,
2013-12-25 05:40:00,1.6,-3.7,30.35,SSW,209,0.0,0.0,78,0.00,,,0.00,Wunderground v.1.15,2013-12-25 10:40:00,
2013-12-25 05:50:00,1.4,-3.9,30.36,SSW,209,0.0,0.0,78,0.00,,,0.00,Wunderground v.1.15,2013-12-25 10:50:00,
2013-12-25 06:00:00,1.0,-4.0,30.37,SSW,209,0.0,1.0,79,0.00,,,0.00,Wunderground v.1.15,2013-12-25 11:00:00,
2013-12-25 06:10:00,0.8,-4.2,30.37,SSW,197,0.0,0.0,79,0.00,,,0.00,Wunderground v.1.15,2013-12-25 11:10:00,
2013-12-25 06:15:00,0.8,-4.2,30.38,SSW,197,0.0,0.0,79,0.00,,,0.00,Wunderground v.1.15,2013-12-25 11:15:00,
2013-12-25 06:25:00,0.8,-4.2,30.38,South,187,0.0,0.0,79,0.00,,,0.00,Wunderground v.1.15,2013-12-25 11:25:00,
2013-12-25 06:30:00,0.8,-4.5,30.38,South,187,0.0,0.0,78,0.00,,,0.00,Wunderground v.1.15,2013-12-25 11:30:00,
2013-12-25 06:35:00,0.7,-4.3,30.39,South,187,0.0,0.0,79,0.00,,,0.00,Wunderground v.1.15,2013-12-25 11:35:00,
2013-12-25 06:45:00,0.6,-4.4,30.39,South,187,0.0,0.0,79,0.00,,,0.00,Wunderground v.1.15,2013-12-25 11:45:00,
2013-12-25 06:50:00,0.6,-4.4,30.40,South,187,0.0,0.0,79,0.00,,,0.00,Wunderground v.1.15,2013-12-25 11:50:00,
2013-12-25 07:00:00,0.2,-4.5,30.40,South,187,0.0,0.0,80,0.00,,,0.00,Wunderground v.1.15,2013-12-25 12:00:00,
2013-12-25 07:10:00,-0.1,-4.3,30.40,South,187,0.0,0.0,82,0.00,,,0.00,Wunderground v.1.15,2013-12-25 12:10:00,
2013-12-25 07:15:00,-0.2,-4.4,30.40,South,187,0.0,0.0,82,0.00,,,0.00,Wunderground v.1.15,2013-12-25 12:15:00,
2013-12-25 07:20:00,-0.3,-4.5,30.41,South,187,0.0,0.0,82,0.00,,,0.00,Wunderground v.1.15,2013-12-25 12:20:00,
2013-12-25 07:30:00,-0.4,-4.3,30.42,South,187,0.0,0.0,83,0.00,,,0.00,Wunderground v.1.15,2013-12-25 12:30:00,
2013-12-25 07:35:00,-0.3,-4.2,30.42,South,187,0.0,0.0,83,0.00,,,0.00,Wunderground v.1.15,2013-12-25 12:35:00,
2013-12-25 07:40:00,-0.1,-4.3,30.43,South,187,0.0,0.0,82,0.00,,,0.00,Wunderground v.1.15,2013-12-25 12:40:00,
2013-12-25 07:50:00,0.1,-3.8,30.42,South,187,0.0,0.0,83,0.00,,,0.00,Wunderground v.1.15,2013-12-25 12:50:00,
2013-12-25 07:55:00,0.2,-3.5,30.43,South,187,0.0,0.0,84,0.00,,,0.00,Wunderground v.1.15,2013-12-25 12:55:00,
2013-12-25 08:05:00,0.7,-3.3,30.44,South,187,0.0,0.0,83,0.00,,,0.00,Wunderground v.1.15,2013-12-25 13:05:00,
2013-12-25 08:10:00,1.1,-3.1,30.44,South,187,0.0,0.0,82,0.00,,,0.00,Wunderground v.1.15,2013-12-25 13:10:00,
2013-12-25 08:15:00,1.6,-2.9,30.44,South,187,0.0,0.0,81,0.00,,,0.00,Wunderground v.1.15,2013-12-25 13:15:00,
2013-12-25 08:25:00,2.4,-2.9,30.44,South,189,0.0,0.0,78,0.00,,,0.00,Wunderground v.1.15,2013-12-25 13:25:00,
2013-12-25 08:30:00,2.6,-2.7,30.44,SSW,197,0.0,0.0,78,0.00,,,0.00,Wunderground v.1.15,2013-12-25 13:30:00,
2013-12-25 08:35:00,2.9,-3.0,30.43,SSW,197,0.0,0.0,76,0.00,,,0.00,Wunderground v.1.15,2013-12-25 13:35:00,
2013-12-25 08:45:00,3.5,-2.7,30.45,SE,141,0.0,0.0,75,0.00,,,0.00,Wunderground v.1.15,2013-12-25 13:45:00,
2013-12-25 08:50:00,3.6,-2.8,30.45,SSE,149,0.0,1.0,74,0.00,,,0.00,Wunderground v.1.15,2013-12-25 13:50:00,
2013-12-25 09:00:00,3.9,-2.8,30.44,SSW,211,1.0,1.0,73,0.00,,,0.00,Wunderground v.1.15,2013-12-25 14:00:00,
2013-12-25 09:09:00,4.4,-2.9,30.44,SW,215,1.0,5.0,71,0.00,,,0.00,Wunderground v.1.15,2013-12-25 14:09:00,
2013-12-25 09:15:00,4.6,-3.0,30.44,SE,132,1.0,5.0,70,0.00,,,0.00,Wunderground v.1.15,2013-12-25 14:15:00,
2013-12-25 09:24:00,5.0,-3.0,30.44,South,183,2.0,2.0,69,0.00,,,0.00,Wunderground v.1.15,2013-12-25 14:24:00,
2013-12-25 09:30:00,5.5,-2.5,30.45,South,187,1.0,2.0,69,0.00,,,0.00,Wunderground v.1.15,2013-12-25 14:30:00,
2013-12-25 09:40:00,5.9,-2.4,30.44,SSW,211,1.0,1.0,68,0.00,,,0.00,Wunderground v.1.15,2013-12-25 14:40:00,
2013-12-25 09:50:00,5.9,-2.7,30.44,SW,233,2.0,2.0,67,0.00,,,0.00,Wunderground v.1.15,2013-12-25 14:50:00,
2013-12-25 10:00:00,6.4,-2.2,30.45,West,266,1.0,1.0,67,0.00,,,0.00,Wunderground v.1.15,2013-12-25 15:00:00,
2013-12-25 10:05:00,6.7,-1.9,30.43,WSW,258,2.0,2.0,67,0.00,,,0.00,Wunderground v.1.15,2013-12-25 15:05:00,
2013-12-25 10:15:00,7.4,-1.0,30.45,NNE,19,1.0,7.0,68,0.00,,,0.00,Wunderground v.1.15,2013-12-25 15:15:00,
2013-12-25 10:20:00,7.2,-1.2,30.46,ENE,69,2.0,2.0,68,0.00,,,0.00,Wunderground v.1.15,2013-12-25 15:20:00,
2013-12-25 10:25:00,7.6,-0.5,30.46,NW,324,1.0,2.0,69,0.00,,,0.00,Wunderground v.1.15,2013-12-25 15:25:00,
2013-12-25 10:35:00,7.7,-1.3,30.46,NNE,12,2.0,4.0,66,0.00,,,0.00,Wunderground v.1.15,2013-12-25 15:35:00,
2013-12-25 10:45:00,8.2,-0.8,30.44,NNE,16,1.0,1.0,66,0.00,,,0.00,Wunderground v.1.15,2013-12-25 15:45:00,
2013-12-25 10:50:00,8.5,-0.5,30.44,NNW,340,1.0,1.0,66,0.00,,,0.00,Wunderground v.1.15,2013-12-25 15:50:00,
2013-12-25 10:55:00,8.4,-1.0,30.44,ENE,65,1.0,4.0,65,0.00,,,0.00,Wunderground v.1.15,2013-12-25 15:55:00,
2013-12-25 11:00:00,8.5,-0.5,30.43,ENE,67,3.0,3.0,66,0.00,,,0.00,Wunderground v.1.15,2013-12-25 16:00:00,
2013-12-25 11:05:00,8.6,-0.4,30.43,ENE,60,3.0,3.0,66,0.00,,,0.00,Wunderground v.1.15,2013-12-25 16:05:00,
2013-12-25 11:15:00,8.9,-0.5,30.42,East,91,1.0,2.0,65,0.00,,,0.00,Wunderground v.1.15,2013-12-25 16:15:00,
2013-12-25 11:20:00,9.0,-0.1,30.42,NE,49,2.0,2.0,66,0.00,,,0.00,Wunderground v.1.15,2013-12-25 16:20:00,
2013-12-25 11:25:00,9.1,-0.3,30.42,NE,52,2.0,4.0,65,0.00,,,0.00,Wunderground v.1.15,2013-12-25 16:25:00,
2013-12-25 11:35:00,9.4,-0.3,30.41,East,89,2.0,4.0,64,0.00,,,0.00,Wunderground v.1.15,2013-12-25 16:35:00,
2013-12-25 11:40:00,9.4,0.0,30.42,East,79,1.0,1.0,65,0.00,,,0.00,Wunderground v.1.15,2013-12-25 16:40:00,
2013-12-25 11:45:00,9.5,0.1,30.42,East,83,1.0,1.0,65,0.00,,,0.00,Wunderground v.1.15,2013-12-25 16:45:00,
2013-12-25 11:50:00,10.0,0.9,30.42,SE,132,1.0,1.0,66,0.00,,,0.00,Wunderground v.1.15,2013-12-25 16:50:00,
2013-12-25 12:00:00,10.1,0.7,30.42,East,92,2.0,4.0,65,0.00,,,0.00,Wunderground v.1.15,2013-12-25 17:00:00,
2013-12-25 12:05:00,10.0,0.6,30.42,ENE,68,3.0,4.0,65,0.00,,,0.00,Wunderground v.1.15,2013-12-25 17:05:00,
2013-12-25 12:15:00,10.2,1.1,30.42,ENE,67,3.0,5.0,66,0.00,,,0.00,Wunderground v.1.15,2013-12-25 17:15:00,
2013-12-25 12:25:00,10.7,1.2,30.42,NNE,27,3.0,4.0,65,0.00,,,0.00,Wunderground v.1.15,2013-12-25 17:25:00,
2013-12-25 12:35:00,11.0,1.5,30.42,ENE,70,3.0,4.0,65,0.00,,,0.00,Wunderground v.1.15,2013-12-25 17:35:00,
2013-12-25 12:40:00,11.1,1.3,30.42,ENE,74,3.0,4.0,64,0.00,,,0.00,Wunderground v.1.15,2013-12-25 17:40:00,
2013-12-25 12:50:00,11.6,1.4,30.42,ENE,75,1.0,5.0,63,0.00,,,0.00,Wunderground v.1.15,2013-12-25 17:50:00,
2013-12-25 12:55:00,11.5,1.0,30.42,ENE,68,1.0,5.0,62,0.00,,,0.00,Wunderground v.1.15,2013-12-25 17:55:00,
2013-12-25 13:00:00,11.7,1.5,30.41,West,263,1.0,1.0,63,0.00,,,0.00,Wunderground v.1.15,2013-12-25 18:00:00,
2013-12-25 13:10:00,12.2,1.3,30.41,NNW,328,0.0,0.0,61,0.00,,,0.00,Wunderground v.1.15,2013-12-25 18:10:00,
2013-12-25 13:20:00,12.6,1.3,30.41,SSW,207,1.0,1.0,60,0.00,,,0.00,Wunderground v.1.15,2013-12-25 18:20:00,
2013-12-25 13:30:00,12.8,1.9,30.41,East,80,1.0,1.0,61,0.00,,,0.00,Wunderground v.1.15,2013-12-25 18:30:00,
2013-12-25 13:40:00,13.0,2.1,30.41,North,5,3.0,3.0,61,0.00,,,0.00,Wunderground v.1.15,2013-12-25 18:40:00,
2013-12-25 13:45:00,13.2,1.9,30.41,ENE,57,2.0,3.0,60,0.00,,,0.00,Wunderground v.1.15,2013-12-25 18:45:00,
2013-12-25 13:50:00,13.3,2.0,30.41,NNE,22,1.0,1.0,60,0.00,,,0.00,Wunderground v.1.15,2013-12-25 18:50:00,
2013-12-25 14:00:00,13.5,2.2,30.41,ENE,67,1.0,1.0,60,0.00,,,0.00,Wunderground v.1.15,2013-12-25 19:00:00,
2013-12-25 14:10:00,13.8,2.5,30.41,North,358,1.0,5.0,60,0.00,,,0.00,Wunderground v.1.15,2013-12-25 19:10:00,
2013-12-25 14:20:00,14.4,2.7,30.41,East,97,1.0,1.0,59,0.00,,,0.00,Wunderground v.1.15,2013-12-25 19:20:00,
2013-12-25 14:30:00,14.3,2.2,30.41,ENE,68,1.0,1.0,58,0.00,,,0.00,Wunderground v.1.15,2013-12-25 19:30:00,
2013-12-25 14:40:00,14.3,2.6,30.39,East,97,0.0,0.0,59,0.00,,,0.00,Wunderground v.1.15,2013-12-25 19:40:00,
2013-12-25 14:50:00,14.4,2.7,30.39,East,96,0.0,0.0,59,0.00,,,0.00,Wunderground v.1.15,2013-12-25 19:50:00,
2013-12-25 15:00:00,14.4,2.3,30.38,East,96,0.0,0.0,58,0.00,,,0.00,Wunderground v.1.15,2013-12-25 20:00:00,
2013-12-25 15:10:00,14.5,2.8,30.39,NE,37,0.0,0.0,59,0.00,,,0.00,Wunderground v.1.15,2013-12-25 20:10:00,
2013-12-25 15:20:00,14.7,2.9,30.40,East,91,1.0,1.0,59,0.00,,,0.00,Wunderground v.1.15,2013-12-25 20:20:00,
2013-12-25 15:30:00,14.6,3.2,30.41,East,80,1.0,1.0,60,0.00,,,0.00,Wunderground v.1.15,2013-12-25 20:30:00,
2013-12-25 15:40:00,14.4,2.7,30.41,ENE,66,1.0,2.0,59,0.00,,,0.00,Wunderground v.1.15,2013-12-25 20:40:00,
2013-12-25 15:45:00,14.1,2.7,30.41,East,83,1.0,2.0,60,0.00,,,0.00,Wunderground v.1.15,2013-12-25 20:45:00,
2013-12-25 15:50:00,13.9,2.9,30.42,East,83,1.0,1.0,61,0.00,,,0.00,Wunderground v.1.15,2013-12-25 20:50:00,
2013-12-25 15:55:00,13.6,3.0,30.42,East,84,0.0,1.0,62,0.00,,,0.00,Wunderground v.1.15,2013-12-25 20:55:00,
2013-12-25 16:00:00,13.4,3.1,30.42,East,84,0.0,0.0,63,0.00,,,0.00,Wunderground v.1.15,2013-12-25 21:00:00,
2013-12-25 16:10:00,12.7,2.8,30.43,East,84,0.0,0.0,64,0.00,,,0.00,Wunderground v.1.15,2013-12-25 21:10:00,
2013-12-25 16:15:00,12.4,2.5,30.43,East,84,0.0,0.0,64,0.00,,,0.00,Wunderground v.1.15,2013-12-25 21:15:00,
2013-12-25 16:20:00,12.1,2.2,30.42,East,84,0.0,0.0,64,0.00,,,0.00,Wunderground v.1.15,2013-12-25 21:20:00,
2013-12-25 16:30:00,11.6,2.1,30.43,East,84,0.0,0.0,65,0.00,,,0.00,Wunderground v.1.15,2013-12-25 21:30:00,
2013-12-25 16:35:00,11.4,1.9,30.43,East,84,0.0,0.0,65,0.00,,,0.00,Wunderground v.1.15,2013-12-25 21:35:00,
2013-12-25 16:45:00,10.5,2.0,30.43,East,84,0.0,0.0,68,0.00,,,0.00,Wunderground v.1.15,2013-12-25 21:45:00,
2013-12-25 16:50:00,10.2,2.0,30.43,East,84,0.0,0.0,69,0.00,,,0.00,Wunderground v.1.15,2013-12-25 21:50:00,
2013-12-25 16:55:00,10.0,2.2,30.43,East,84,0.0,0.0,70,0.00,,,0.00,Wunderground v.1.15,2013-12-25 21:55:00,
2013-12-25 17:05:00,9.5,2.6,30.43,East,84,0.0,0.0,73,0.00,,,0.00,Wunderground v.1.15,2013-12-25 22:05:00,
2013-12-25 17:10:00,9.1,2.8,30.43,East,84,0.0,0.0,75,0.00,,,0.00,Wunderground v.1.15,2013-12-25 22:10:00,
2013-12-25 17:20:00,8.7,3.0,30.42,SE,133,1.0,2.0,77,0.00,,,0.00,Wunderground v.1.15,2013-12-25 22:20:00,
2013-12-25 17:25:00,8.7,3.0,30.42,SE,133,1.0,2.0,77,0.00,,,0.00,Wunderground v.1.15,2013-12-25 22:25:00,
2013-12-25 17:35:00,8.4,2.9,30.42,SE,133,0.0,1.0,78,0.00,,,0.00,Wunderground v.1.15,2013-12-25 22:35:00,
2013-12-25 17:40:00,8.2,3.0,30.42,SE,133,0.0,0.0,79,0.00,,,0.00,Wunderground v.1.15,2013-12-25 22:40:00,
2013-12-25 17:45:00,8.0,2.8,30.42,SE,133,0.0,0.0,79,0.00,,,0.00,Wunderground v.1.15,2013-12-25 22:45:00,
2013-12-25 17:55:00,8.2,3.3,30.41,SSW,205,1.0,2.0,80,0.00,,,0.00,Wunderground v.1.15,2013-12-25 22:55:00,
2013-12-25 18:00:00,8.2,3.6,30.41,SSW,205,0.0,0.0,81,0.00,,,0.00,Wunderground v.1.15,2013-12-25 23:00:00,
2013-12-25 18:10:00,8.4,3.8,30.41,SSW,205,0.0,0.0,81,0.00,,,0.00,Wunderground v.1.15,2013-12-25 23:10:00,
2013-12-25 18:20:00,9.0,4.4,30.41,SSW,205,0.0,0.0,81,0.00,,,0.00,Wunderground v.1.15,2013-12-25 23:20:00,
2013-12-25 18:25:00,9.0,4.4,30.41,SSW,205,0.0,0.0,81,0.00,,,0.00,Wunderground v.1.15,2013-12-25 23:25:00,
2013-12-25 18:30:00,9.1,4.5,30.41,SSW,205,0.0,0.0,81,0.00,,,0.00,Wunderground v.1.15,2013-12-25 23:30:00,
2013-12-25 18:39:00,9.2,4.6,30.41,SSW,205,0.0,0.0,81,0.00,,,0.00,Wunderground v.1.15,2013-12-25 23:39:00,
2013-12-25 18:45:00,9.4,4.7,30.42,SSW,205,0.0,0.0,81,0.00,,,0.00,Wunderground v.1.15,2013-12-25 23:45:00,
2013-12-25 18:55:00,9.6,5.2,30.42,SSW,205,0.0,0.0,82,0.00,,,0.00,Wunderground v.1.15,2013-12-25 23:55:00,
2013-12-25 19:00:00,9.7,5.3,30.42,SSW,205,0.0,0.0,82,0.00,,,0.00,Wunderground v.1.15,2013-12-26 00:00:00,
2013-12-25 19:05:00,9.8,5.4,30.42,SSW,205,0.0,0.0,82,0.00,,,0.00,Wunderground v.1.15,2013-12-26 00:05:00,
2013-12-25 19:10:00,9.7,5.3,30.41,SSW,205,0.0,0.0,82,0.00,,,0.00,Wunderground v.1.15,2013-12-26 00:10:00,
2013-12-25 19:20:00,9.6,5.2,30.41,SSW,205,0.0,0.0,82,0.00,,,0.00,Wunderground v.1.15,2013-12-26 00:20:00,
2013-12-25 19:30:00,9.5,5.4,30.41,SSW,205,0.0,0.0,83,0.00,,,0.00,Wunderground v.1.15,2013-12-26 00:30:00,
2013-12-25 19:35:00,9.3,5.2,30.41,SSW,205,0.0,0.0,83,0.00,,,0.00,Wunderground v.1.15,2013-12-26 00:35:00,
2013-12-25 19:40:00,8.9,4.8,30.40,SSW,205,0.0,0.0,83,0.00,,,0.00,Wunderground v.1.15,2013-12-26 00:40:00,
2013-12-25 19:50:00,8.5,4.7,30.41,SSW,205,0.0,0.0,84,0.00,,,0.00,Wunderground v.1.15,2013-12-26 00:50:00,
2013-12-25 19:55:00,8.5,4.9,30.41,SSW,205,0.0,0.0,85,0.00,,,0.00,Wunderground v.1.15,2013-12-26 00:55:00,
2013-12-25 20:00:00,8.5,4.9,30.42,SSW,205,0.0,0.0,85,0.00,,,0.00,Wunderground v.1.15,2013-12-26 01:00:00,
2013-12-25 20:10:00,8.6,5.3,30.41,SSW,205,0.0,0.0,86,0.00,,,0.00,Wunderground v.1.15,2013-12-26 01:10:00,
2013-12-25 20:20:00,8.9,5.6,30.41,SSW,205,0.0,0.0,86,0.00,,,0.00,Wunderground v.1.15,2013-12-26 01:20:00,
2013-12-25 20:30:00,9.5,5.9,30.41,SSW,205,0.0,0.0,85,0.00,,,0.00,Wunderground v.1.15,2013-12-26 01:30:00,
2013-12-25 20:40:00,9.9,6.3,30.41,SSW,205,0.0,0.0,85,0.00,,,0.00,Wunderground v.1.15,2013-12-26 01:40:00,
2013-12-25 20:45:00,10.0,6.4,30.41,SSW,205,0.0,0.0,85,0.00,,,0.00,Wunderground v.1.15,2013-12-26 01:45:00,
2013-12-25 20:50:00,10.2,6.6,30.41,SSW,205,0.0,0.0,85,0.00,,,0.00,Wunderground v.1.15,2013-12-26 01:50:00,
2013-12-25 21:00:00,10.4,6.8,30.41,SSW,204,0.0,0.0,85,0.00,,,0.00,Wunderground v.1.15,2013-12-26 02:00:00,
2013-12-25 21:10:00,10.5,6.9,30.40,SSW,204,0.0,0.0,85,0.00,,,0.00,Wunderground v.1.15,2013-12-26 02:10:00,
2013-12-25 21:15:00,10.5,6.6,30.40,SSW,204,0.0,0.0,84,0.00,,,0.00,Wunderground v.1.15,2013-12-26 02:15:00,
2013-12-25 21:20:00,10.5,6.6,30.40,SSW,204,0.0,0.0,84,0.00,,,0.00,Wunderground v.1.15,2013-12-26 02:20:00,
2013-12-25 21:25:00,10.5,6.6,30.40,SSW,204,0.0,0.0,84,0.00,,,0.00,Wunderground v.1.15,2013-12-26 02:25:00,
2013-12-25 21:30:00,10.5,6.6,30.40,SSW,204,0.0,0.0,84,0.00,,,0.00,Wunderground v.1.15,2013-12-26 02:30:00,
2013-12-25 21:35:00,10.5,6.6,30.40,SSW,204,0.0,0.0,84,0.00,,,0.00,Wunderground v.1.15,2013-12-26 02:35:00,
2013-12-25 21:45:00,10.7,6.8,30.40,South,176,0.0,0.0,84,0.00,,,0.00,Wunderground v.1.15,2013-12-26 02:45:00,
2013-12-25 21:50:00,10.8,7.2,30.40,South,176,0.0,0.0,85,0.00,,,0.00,Wunderground v.1.15,2013-12-26 02:50:00,
2013-12-25 21:55:00,10.9,7.0,30.39,South,176,0.0,0.0,84,0.00,,,0.00,Wunderground v.1.15,2013-12-26 02:55:00,
2013-12-25 22:00:00,10.9,7.0,30.39,South,176,0.0,0.0,84,0.00,,,0.00,Wunderground v.1.15,2013-12-26 03:00:00,
2013-12-25 22:10:00,10.9,7.3,30.39,South,176,0.0,0.0,85,0.00,,,0.00,Wunderground v.1.15,2013-12-26 03:10:00,
2013-12-25 22:19:00,10.9,7.3,30.39,South,176,0.0,0.0,85,0.00,,,0.00,Wunderground v.1.15,2013-12-26 03:19:00,
2013-12-25 22:24:00,10.8,7.2,30.39,South,176,0.0,0.0,85,0.00,,,0.00,Wunderground v.1.15,2013-12-26 03:24:00,
2013-12-25 22:30:00,10.8,7.2,30.38,South,176,0.0,0.0,85,0.00,,,0.00,Wunderground v.1.15,2013-12-26 03:30:00,
2013-12-25 22:39:00,10.8,7.2,30.38,South,176,0.0,0.0,85,0.00,,,0.00,Wunderground v.1.15,2013-12-26 03:39:00,
2013-12-25 22:45:00,10.7,7.1,30.38,South,176,0.0,0.0,85,0.00,,,0.00,Wunderground v.1.15,2013-12-26 03:45:00,
2013-12-25 22:55:00,10.6,7.0,30.39,South,176,0.0,0.0,85,0.00,,,0.00,Wunderground v.1.15,2013-12-26 03:55:00,
2013-12-25 23:00:00,10.5,6.9,30.38,South,176,0.0,0.0,85,0.00,,,0.00,Wunderground v.1.15,2013-12-26 04:00:00,
2013-12-25 23:10:00,10.3,6.7,30.39,South,176,0.0,0.0,85,0.00,,,0.00,Wunderground v.1.15,2013-12-26 04:10:00,
2013-12-25 23:15:00,10.3,6.9,30.38,South,176,0.0,0.0,86,0.00,,,0.00,Wunderground v.1.15,2013-12-26 04:15:00,
2013-12-25 23:25:00,10.3,6.9,30.38,South,176,0.0,0.0,86,0.00,,,0.00,Wunderground v.1.15,2013-12-26 04:25:00,
2013-12-25 23:30:00,10.3,7.2,30.38,South,176,0.0,0.0,87,0.00,,,0.00,Wunderground v.1.15,2013-12-26 04:30:00,
2013-12-25 23:40:00,10.4,7.3,30.37,South,176,0.0,0.0,87,0.00,,,0.00,Wunderground v.1.15,2013-12-26 04:40:00,
2013-12-25 23:50:00,10.5,7.4,30.37,South,176,0.0,0.0,87,0.00,,,0.00,Wunderground v.1.15,2013-12-26 04:50:00,
2013-12-25 23:55:00,10.7,7.6,30.36,South,176,0.0,0.0,87,0.00,,,0.00,Wunderground v.1.15,2013-12-26 04:55:00,